Regional Weather Roundup
Issued by NWS

Home | Current Version | Previous Version | Graphics & Text | Print | Product List | Glossary On
Versions: 1 2 3 4 5 6 7 8 9 10 11 12 13 14 15 16 17 18 19 20 21 22 23 24 25 26 27
000
ASUS45 KTFX 021610
RWRMT
MONTANA REGIONAL WEATHER ROUNDUP
NATIONAL WEATHER SERVICE GREAT FALLS MT
900 AM MST FRI DEC 02 2016

NOTE: "FAIR" INDICATES FEW OR NO CLOUDS BELOW 12000 FEET WITH NO
SIGNIFICANT WEATHER AND/OR OBSTRUCTIONS TO VISIBILITY.

MTZ001>007-043-021700-
WEST OF THE DIVIDE

CITY           SKY/WX    TMP DP  RH WIND       PRES   REMARKS
KALISPELL      CLOUDY    29  28  96 N3        30.24R
MISSOULA       CLOUDY    26  23  88 N3        30.29R
BUTTE          CLOUDY    22  18  85 N3        30.19S
MULLAN PASS    CLOUDY    20  17  88 VRB3      30.18R
ANACONDA         N/A     27  16  63 SW5       30.22R
DEER LODGE       N/A     25  23  93 CALM      30.24S
EUREKA           N/A     30  28  93 SE3       30.24S
HAMILTON         N/A     32  18  55 S7        30.28S WCI  26
LIBBY            N/A     28  27  93 CALM      30.26R
PLAINS           N/A     34  26  72 CALM      30.28R
RONAN            N/A     33  24  70 CALM      30.28R
$$

MTZ008-052>055-021700-
SOUTHWEST MONTANA

CITY           SKY/WX    TMP DP  RH WIND       PRES   REMARKS
BOZEMAN        CLOUDY    22  19  89 CALM      30.23R
DILLON         CLEAR     18  11  74 SW8       30.21R WCI   8
W YELLOWSTONE  CLOUDY    10   9  92 CALM      30.18S
ENNIS          CLOUDY    23  18  80 S7        30.25R WCI  15
THREE FORKS      N/A     22  22 100 CALM      30.19R
TWIN BRIDGES     N/A     19  11  71 SE2       30.18R
$$

MTZ009-010-012-014-046-048-049-054-021700-
EAST SLOPES AND CENTRAL MONTANA

CITY           SKY/WX    TMP DP  RH WIND       PRES   REMARKS
CUT BANK       CLEAR     19  16  88 SW7       30.07S WCI  10
GREAT FALLS    CLEAR     24  18  77 S13       30.13S WCI  12
HELENA         CLOUDY    32  18  56 NE5       30.20S
AUGUSTA          N/A     27  20  77 W12       30.09S WCI  16
BOWMANS CRNR     N/A     25  20  80 SW12      30.10S WCI  14
CHOTEAU          N/A     25  18  74 S5        30.11S
CONRAD           N/A     15  14  95 NW5       30.10R
FAIRFIELD        N/A     21  15  79 E1        30.10S
POWER            N/A     19  17  94 SW7       30.10F WCI   9
RAYNESFORD       N/A     28  20  72 SW12      30.14R WCI  17
ULM              N/A     17  13  86 NW5       30.15S
$$

MTZ011-013-016-021-045-047-050-051-021700-
NORTH CENTRAL MONTANA

CITY           SKY/WX    TMP DP  RH WIND       PRES   REMARKS
HAVRE          CLEAR     23  22  96 W8        30.14R WCI  14
LEWISTOWN      CLEAR     21  18  88 SE5       30.13S
N BAR RANCH      N/A     23  19  86 NW6       30.14S WCI  16
CHINOOK          N/A     25  25 100 CALM      30.15R
DENTON           N/A     24  20  86 S10       30.10S WCI  13
GEYSER           N/A     24  17  75 W5        30.12S
GRASS RANGE      N/A     26  24  92 SW3       30.11R
JUDITH GAP     MOCLDY    19  17  92 S10       30.13R WCI   8
ROY              N/A     30  26  84 MISG      30.12R
STANFORD         N/A     24  19  80 W9        30.11S WCI  15
WINIFRED         N/A     28  26  91 MISG      30.12R
$$

MTZ017>020-022>027-061-062-021700-
NORTHEAST MONTANA

CITY           SKY/WX    TMP DP  RH WIND       PRES   REMARKS
GLASGOW        CLOUDY    27  24  89 CALM      30.16R FOG
JORDAN           N/A     30  27  88 NW5       30.17R
SIDNEY         CLOUDY    25  24  96 S3        30.19R
WOLF POINT     CLOUDY    30  26  85 W7        30.19R WCI  23
PLENTYWOOD       N/A     27  27 100 CALM      30.16R
POPLAR           N/A     28  25  86 CALM      30.19R
SCOBEY           N/A     25  19  77 CALM      30.12R
$$

MTZ028>42-056>058-021700-
SOUTHCENTRAL AND SOUTHEAST MONTANA

CITY           SKY/WX    TMP DP  RH WIND       PRES   REMARKS
BAKER          CLOUDY    26  23  88 W8        30.17R WCI  18
BILLINGS       MOSUNNY   28  21  75 SW12      30.19S WCI  18
LIVINGSTON     PTCLDY    26  18  71 NW10G22   30.19R WCI  16
MILES CITY     CLOUDY    22  19  89 SE5       30.19S
BIG TIMBER     CLEAR     28  19  69 W20G28    30.18S WCI  15
EKALAKA          N/A     24  20  85 SW2       30.12R
FORSYTH          N/A     28  27  93 CALM      30.19R
HARLOWTON      CLOUDY    28  22  79 W12       30.16R WCI  17
LAUREL           N/A     27  11  51 S2        30.16R
$$

REGIONAL REPORTS...DAKOTAS

CITY           SKY/WX    TMP DP  RH WIND       PRES   REMARKS
WILLISTON      CLOUDY    28  23  81 E6        30.17S WCI  22
MINOT          FLURRIES  26  21  81 SE5       30.22R
DICKINSON      CLOUDY    24  22  91 S8        30.15S WCI  15
BEACH          PTSUNNY   23  23 100 W5        30.20R
CROSBY         CLOUDY    27  27 100 S10       30.19S WCI  17
TIOGA          MIX PCPN  25  25 100 SE8       30.18S WCI  16
WATFORD CITY   PTSUNNY   27  25  93 S6        30.18S WCI  20
BISMARCK       CLOUDY    24  19  81 E5        30.26R
GRAND FORKS    CLOUDY    30  22  72 NW5       30.26R
FARGO          CLOUDY    29  20  69 N10       30.26R WCI  20
BUFFALO SD       N/A     26  23  88 W6        30.10R WCI  19
RAPID CITY     CLOUDY    32  25  75 NW6       30.17R WCI  26
$$

REGIONAL REPORTS...WYOMING/IDAHO/WASHINGTON

CITY           SKY/WX    TMP DP  RH WIND       PRES   REMARKS
GILLETTE       CLOUDY    29  24  82 W9        30.18R WCI  20
SHERIDAN       SUNNY     26  21  81 S5        30.19R
BUFFALO WY     CLOUDY    32  17  54 SW3       30.17R
YELLOWSTONE LA   N/A     13  11  92 CALM      30.14R
IDAHO FALLS    FOG       17  14  88 N3        30.28R VSB<1/4
SALMON         CLOUDY    27  23  86 CALM      30.29F
BOISE          CLEAR     25  19  78 S6        30.37R WCI  18
SPOKANE        MOCLDY    30  29  96 S7        30.31S WCI  23
$$

REGIONAL REPORTS...ALBERTA

CITY           SKY/WX    TMP DP  RH WIND       PRES   REMARKS
EDMONTON       PTCLDY    14  12  92 SE5       29.92F
CALGARY        PTCLDY    18  12  79 S6        29.94F WCI   9
LETHBRIDGE     PTCLDY    27  19  74 SW13      30.04S WCI  16
MEDICINE HAT   CLOUDY    25  23  93 SW3       30.09F
WATERTON GATE    N/A     32  16  51 SW24G36     N/A  WCI  19
CARDSTON         N/A     23  16  74 SW5         N/A
MILK RIVER       N/A     19  16  86 NW5         N/A
ONEFOUR          N/A     19  18  93 CALM        N/A
$$

REGIONAL REPORTS...SASKATCHEWAN

CITY           SKY/WX    TMP DP  RH WIND       PRES   REMARKS
SWIFT CURRENT  CLOUDY    21  19  93 W8        30.06S WCI  12
REGINA         FRZ RAIN  25  25 100 W8        30.13R FOG     WCI  16
SASKATOON      CLOUDY    27  23  86 SW5       30.12F
CYPRESS HILLS    N/A     23  19  86 W6          N/A  WCI  16
VAL MARIE        N/A     23  21  93 S3          N/A
ROCKGLEN         N/A     23  21  93 SW5         N/A
ASSINIBOIA       N/A     25  25 100 S9          N/A  WCI  15
$$




USA.gov is the U.S. government's official web portal to all federal, state and local government web resources and services.